Location: Gleizolles
(44.4833°N, 6.7667°E)
Time: 06:25:55
(UTC+00:00)

BlueWalker 3 - Pass Details

Date: 31 May 2024
Orbit: 480 x 493 km, 53.2° (Epoch: 23 June)

Event Time Altitude Azimuth Distance (km) Brightness Sun altitude
Exits shadow 02:39:50 - 178° (S) 1,866 4.4 -10.8°
Reaches altitude 10° 02:40:37 10° 170° (S) 1,646 4.2 -10.7°
Maximum altitude 02:43:00 16° 130° (SE) 1,305 4.1 -10.4°
Drops below altitude 10° 02:45:23 10° 90° (E) 1,656 5.3 -10.1°
Sets 02:48:09 0° 69° (ENE) 2,541 6.9 -9.7°
